TimeAKST,TemperatureF,Dew PointF,Humidity,Sea Level PressureIn,VisibilityMPH,Wind Direction,Wind SpeedMPH,Gust SpeedMPH,PrecipitationIn,Events,Conditions,WindDirDegrees,DateUTC
12:53 AM,24.1,17.1,75,30.01,10.0,NNE,3.5,-,N/A,,Clear,30,2013-03-07 09:53:00
1:53 AM,24.1,17.1,75,30.02,10.0,NE,4.6,-,N/A,,Clear,40,2013-03-07 10:53:00
3:53 AM,21.9,17.1,82,30.02,10.0,NE,3.5,-,N/A,,Clear,40,2013-03-07 12:53:00
4:53 AM,21.9,17.1,82,30.01,10.0,Calm,Calm,-,N/A,,Clear,0,2013-03-07 13:53:00
5:53 AM,21.0,16.0,81,30.00,10.0,NNE,5.8,-,N/A,,Clear,30,2013-03-07 14:53:00
6:53 AM,21.0,16.0,81,30.01,10.0,Calm,Calm,-,N/A,,Clear,0,2013-03-07 15:53:00
7:53 AM,21.9,16.0,78,30.01,9.0,NE,3.5,-,N/A,,Clear,40,2013-03-07 16:53:00
8:53 AM,23.0,17.1,78,30.01,9.0,Calm,Calm,-,N/A,,Clear,0,2013-03-07 17:53:00
9:53 AM,27.0,19.9,75,30.01,7.0,Calm,Calm,-,N/A,,Clear,0,2013-03-07 18:53:00
10:53 AM,30.0,21.9,72,30.01,10.0,Calm,Calm,-,N/A,,Clear,0,2013-03-07 19:53:00
11:53 AM,33.1,21.0,61,30.02,10.0,SW,6.9,-,N/A,,Clear,220,2013-03-07 20:53:00
12:53 PM,36.0,19.9,52,30.02,10.0,Calm,Calm,-,N/A,,Clear,0,2013-03-07 21:53:00
1:53 PM,36.0,23.0,59,30.00,10.0,SSW,16.1,23.0,N/A,,Clear,210,2013-03-07 22:53:00
2:53 PM,37.9,19.9,48,30.00,10.0,SSW,17.3,-,N/A,,Clear,210,2013-03-07 23:53:00
3:53 PM,37.9,19.9,48,30.00,10.0,SSW,12.7,-,N/A,,Clear,210,2013-03-08 00:53:00
4:53 PM,37.0,19.0,48,30.00,10.0,SSW,12.7,-,N/A,,Clear,200,2013-03-08 01:53:00
5:53 PM,37.0,19.0,48,30.01,10.0,South,9.2,-,N/A,,Clear,190,2013-03-08 02:53:00
6:53 PM,37.0,19.0,48,30.00,10.0,SSW,8.1,-,N/A,,Clear,210,2013-03-08 03:53:00
7:53 PM,34.0,21.0,59,30.01,10.0,North,3.5,-,N/A,,Clear,10,2013-03-08 04:53:00
8:53 PM,32.0,21.0,64,30.02,10.0,Variable,3.5,-,N/A,,Clear,0,2013-03-08 05:53:00
9:53 PM,30.9,21.0,67,30.03,10.0,NNE,6.9,-,N/A,,Clear,30,2013-03-08 06:53:00
10:53 PM,30.9,19.9,64,30.03,10.0,NE,5.8,-,N/A,,Clear,50,2013-03-08 07:53:00
11:53 PM,30.0,19.9,66,30.04,10.0,NNE,6.9,-,N/A,,Clear,30,2013-03-08 08:53:00